Hourly Data Report for October 01, 2017

All times are specified in Local Standard Time (LST). Add 1 hour to adjust for Daylight Saving Time where and when it is observed.

TIMMINS A
ONTARIO

48°34'14.000" N
81°22'36.000" W
294.70 m
6078286
71739
YTS

Download Data

Hourly Data (October 2017)
Hourly Data Report for October 1, 2017
Temp Definition
°C
Dew Point Temp Definition
°C
Rel Hum Definition
%
Wind Dir Definition
10's deg

Wind Spd Definition
km/h
Visibility Definition
km
Stn Press Definition
kPa
Hmdx Definition


Wind Chill Definition


Weather Definition


TIME
00:00 Legend Double Dagger 2.3 1.7 96 18 9 24.1 98.94     LegendNANA
01:00 Legend Double Dagger 2.7 2.1 95 19 9 24.1 98.95     Clear
02:00 Legend Double Dagger 1.7 1.2 97 18 9 24.1 98.96     LegendNANA
03:00 Legend Double Dagger 1.7 1.3 97 18 10 24.1 98.95     LegendNANA
04:00 Legend Double Dagger 0.7 0.4 97 17 10 24.1 98.95     Clear
05:00 Legend Double Dagger 1.4 1.1 98 18 8 24.1 98.94     LegendNANA
06:00 Legend Double Dagger 1.5 1.2 98 18 10 24.1 98.93     LegendNANA
07:00 Legend Double Dagger 1.7 1.4 98 18 8 24.1 98.93     Mainly Clear
08:00 Legend Double Dagger 4.9 4.6 98 17 8 24.1 98.93     LegendNANA
09:00 Legend Double Dagger 10.5 8.1 85 22 9 24.1 98.92     LegendNANA
10:00 Legend Double Dagger 13.1 8.4 73 26 12 24.1 98.91     Mostly Cloudy
11:00 Legend Double Dagger 15.1 8.1 63 24 16 24.1 98.89     LegendNANA
12:00 Legend Double Dagger 17.1 8.9 58 23 12 24.1 98.86     LegendNANA
13:00 Legend Double Dagger 17.5 7.1 50 22 19 24.1 98.83     Mostly Cloudy
14:00 Legend Double Dagger 17.7 7.5 51 24 11 24.1 98.79     LegendNANA
15:00 Legend Double Dagger 18.5 7.7 49 26 12 24.1 98.77     LegendNANA
16:00 Legend Double Dagger 17.1 5.7 47 24 14 24.1 98.76     Mostly Cloudy
17:00 Legend Double Dagger 16.8 7.0 52 25 5 24.1 98.77     LegendNANA
18:00 Legend Double Dagger 11.3 8.8 85 23 4 24.1 98.78     LegendNANA
19:00 Legend Double Dagger 9.1 7.0 86 36 1 24.1 98.82     Mostly Cloudy
20:00 Legend Double Dagger 8.2 6.9 91 36 1 24.1 98.85     LegendNANA
21:00 Legend Double Dagger 8.4 7.2 92 36 1 24.1 98.86     LegendNANA
22:00 Legend Double Dagger 7.5 6.8 95 19 3 24.1 98.88     Mostly Cloudy
23:00 Legend Double Dagger 8.0 6.6 91 18 9 24.1 98.91     LegendNANA

Notes on Data Quality.

Legend

  • E = Estimated
  • M = Missing
  • NA = Not Available
  • ‡ = Partner data that is not subject to review by the National Climate Archives
Date modified: